FW8640 Weather Reports


time (UTC)temp
C
wind
direction
speed
KPH
gust
KPH
rain 1hr
cm
rain 24hr
cm
rain mn
cm
humidity
%
barometer
mb
20260506153020 21 0.0 1.6 0.00 0.00 0.00 67 1015.6
20260506152018 21 225 8.0 14.5 0.00 0.00 0.00 65 1015.6
20260506151018 22 225 6.4 17.7 0.00 0.00 0.00 62 1015.7
20260506150021 22 225 1.6 8.0 0.00 0.00 0.00 63 1015.6
20260506145018 22 225 1.6 12.9 0.00 0.00 0.00 62 1015.5
20260506144018 22 225 4.8 16.1 0.00 0.00 0.00 62 1015.5
20260506143040 22 225 1.6 9.7 0.00 0.00 0.00 63 1015.6
20260506142039 22 225 4.8 14.5 0.00 0.00 0.00 63 1015.7
20260506141017 22 225 9.7 16.1 0.00 0.00 0.00 61 1015.7
20260506140018 23 203 6.4 17.7 0.00 0.00 0.00 59 1015.7
20260506135019 23 203 4.8 11.3 0.00 0.00 0.00 55 1015.6
20260506134017 23 203 3.2 12.9 0.00 0.00 0.00 55 1015.4
20260506133039 23 203 4.8 14.5 0.00 0.00 0.00 53 1015.6
20260506132018 23 203 3.2 16.1 0.00 0.00 0.00 55 1015.8
20260506131019 23 203 4.8 14.5 0.00 0.00 0.00 56 1016.0
20260506130019 23 203 3.2 11.3 0.00 0.00 0.00 56 1016.0
20260506125123 23 203 3.2 12.9 0.00 0.00 0.00 54 1016.1
20260506124018 24 180 3.2 12.9 0.00 0.00 0.00 52 1016.3
20260506123040 24 180 1.6 6.4 0.00 0.00 0.00 52 1016.4
20260506122019 24 180 3.2 11.3 0.00 0.00 0.00 49 1016.5
20260506121017 24 180 3.2 11.3 0.00 0.00 0.00 51 1016.6
20260506120018 24 180 1.6 6.4 0.00 0.00 0.00 50 1016.7
20260506115017 25 180 1.6 3.2 0.00 0.00 0.00 47 1016.6
20260506114017 24 0.0 8.0 0.00 0.00 0.00 46 1016.7
20260506113017 25 0.0 3.2 0.00 0.00 0.00 45 1016.7
20260506112019 24 0.0 1.6 0.00 0.00 0.00 46 1016.8
20260506111019 23 0.0 3.2 0.00 0.00 0.00 48 1016.9
20260506110018 23 180 1.6 9.7 0.00 0.00 0.00 47 1017.0
20260506105019 23 180 8.0 16.1 0.00 0.00 0.00 43 1017.0
20260506104020 23 180 1.6 11.3 0.00 0.00 0.00 43 1017.0
20260506103019 23 180 3.2 9.7 0.00 0.00 0.00 39 1017.0
20260506102019 23 180 1.6 6.4 0.00 0.00 0.00 38 1016.9
20260506101019 23 0.0 3.2 0.00 0.00 0.00 43 1017.0
20260506100019 23 180 1.6 8.0 0.00 0.00 0.00 46 1017.1
20260506095020 23 180 4.8 11.3 0.00 0.00 0.00 45 1017.2
20260506094019 24 180 3.2 11.3 0.00 0.00 0.00 41 1017.2
20260506093020 24 0.0 3.2 0.00 0.00 0.00 39 1017.2
20260506092020 23 0.0 1.6 0.00 0.00 0.00 40 1017.4
20260506091022 23 0.0 6.4 0.00 0.00 0.00 45 1017.2
20260506090019 22 0.0 3.2 0.00 0.00 0.00 48 1017.3
20260506085040 22 0.0 4.8 0.00 0.00 0.00 56 1017.2
20260506084019 22 0.0 4.8 0.00 0.00 0.00 57 1017.3
20260506083019 21 0.0 6.4 0.00 0.00 0.00 59 1017.3
20260506082019 21 180 1.6 8.0 0.00 0.00 0.00 60 1017.3
20260506081042 21 0.0 3.2 0.00 0.00 0.00 61 1017.1
20260506073019 20 180 1.6 6.4 0.00 0.00 0.00 62 1017.2
20260506072041 20 0.0 1.6 0.00 0.00 0.00 63 1017.1
20260506071020 20 0.0 4.8 0.00 0.00 0.00 64 1017.1
20260506062018 18 180 1.6 6.4 0.00 0.00 0.00 68 1017.4
20260506061103 18 0.0 0.0 0.00 0.00 0.00 68 1017.3
20260506051019 17 0.0 0.0 0.00 0.00 0.00 72 1017.2
20260506045018 16 0.0 0.0 0.00 0.00 0.00 74 1017.0
20260506044019 15 0.0 0.0 0.00 0.00 0.00 75 1016.9
20260506043042 15 0.0 0.0 0.00 0.00 0.00 76 1016.7
20260506042042 14 0.0 0.0 0.00 0.00 0.00 76 1016.6
20260506041042 14 0.0 0.0 0.00 0.00 0.00 75 1016.6
20260506040019 14 0.0 0.0 0.00 0.00 0.00 75 1016.5
20260506035020 14 0.0 0.0 0.00 0.00 0.00 74 1016.4
20260506034020 14 0.0 0.0 0.00 0.00 0.00 74 1016.3
20260506033019 14 0.0 0.0 0.00 0.00 0.00 74 1016.4
20260506032019 14 0.0 0.0 0.00 0.00 0.00 74 1016.4
20260506031020 14 0.0 0.0 0.00 0.00 0.00 73 1016.4
20260506030018 14 0.0 0.0 0.00 0.00 0.00 73 1016.3
20260506025018 14 0.0 0.0 0.00 0.00 0.00 72 1016.3
20260506024018 14 0.0 0.0 0.00 0.00 0.00 71 1016.4
20260506023124 14 0.0 0.0 0.00 0.00 0.00 71 1016.4
20260506022018 14 0.0 0.0 0.00 0.00 0.00 70 1016.6
20260506021019 14 0.0 0.0 0.00 0.00 0.00 70 1016.4
20260506020021 14 0.0 0.0 0.00 0.00 0.00 70 1016.4
20260506015102 14 0.0 0.0 0.00 0.00 0.00 69 1016.3
20260506014041 14 0.0 0.0 0.00 0.00 0.00 69 1016.2
20260506013018 14 0.0 0.0 0.00 0.00 0.00 69 1016.1
20260506012018 15 0.0 0.0 0.00 0.00 0.00 68 1016.2
20260506011018 15 0.0 0.0 0.00 0.00 0.00 67 1016.2
20260506010041 15 0.0 0.0 0.00 0.00 0.00 65 1016.2
20260506005020 15 0.0 0.0 0.00 0.00 0.00 64 1016.2
20260506004041 15 0.0 0.0 0.00 0.00 0.00 64 1016.1
20260506003018 15 0.0 0.0 0.00 0.00 0.00 62 1016.0
20260506002018 15 0.0 0.0 0.00 0.00 0.00 61 1016.1
20260506001019 15 0.0 0.0 0.00 0.00 0.00 61 1016.0
20260506000018 16 0.0 0.0 0.00 0.00 0.00 60 1016.1
20260505235017 16 0.0 0.0 0.00 0.00 0.00 59 1015.9
20260505234019 16 0.0 0.0 0.00 0.00 0.00 59 1015.9
20260505233020 16 0.0 0.0 0.00 0.00 0.00 59 1015.9
20260505232018 16 0.0 0.0 0.00 0.00 0.00 58 1015.9
20260505231019 16 0.0 0.0 0.00 0.00 0.00 58 1015.9
20260505230019 16 0.0 0.0 0.00 0.00 0.00 58 1015.9
20260505225020 16 0.0 0.0 0.00 0.00 0.00 57 1015.9
20260505224019 16 0.0 0.0 0.00 0.00 0.00 56 1016.1
20260505223039 16 0.0 0.0 0.00 0.00 0.00 56 1016.1
20260505222017 17 0.0 0.0 0.00 0.00 0.00 55 1016.1
20260505221018 17 0.0 0.0 0.00 0.00 0.00 54 1016.0
20260505220017 17 0.0 0.0 0.00 0.00 0.00 54 1016.0
20260505215019 17 0.0 0.0 0.00 0.00 0.00 53 1016.0
20260505214017 17 0.0 0.0 0.00 0.00 0.00 52 1015.9
20260505213017 17 0.0 0.0 0.00 0.00 0.00 51 1016.0
20260505212019 17 0.0 0.0 0.00 0.00 0.00 50 1015.9
20260505211040 17 0.0 0.0 0.00 0.00 0.00 49 1015.9
20260505210019 17 0.0 0.0 0.00 0.00 0.00 48 1015.8
20260505205020 18 0.0 0.0 0.00 0.00 0.00 47 1015.6
20260505204018 18 0.0 0.0 0.00 0.00 0.00 47 1015.6
20260505203104 18 0.0 0.0 0.00 0.00 0.00 45 1015.4
20260505202019 18 0.0 0.0 0.00 0.00 0.00 45 1015.3
20260505201041 19 0.0 0.0 0.00 0.00 0.00 44 1015.3
20260505200018 19 0.0 0.0 0.00 0.00 0.00 43 1015.3
20260505195018 19 0.0 0.0 0.00 0.00 0.00 43 1015.1
20260505194019 20 0.0 0.0 0.00 0.00 0.00 43 1015.1
20260505193019 20 0.0 0.0 0.00 0.00 0.00 42 1014.8
20260505192040 20 0.0 0.0 0.00 0.00 0.00 42 1014.8
20260505191018 20 0.0 0.0 0.00 0.00 0.00 41 1014.7
20260505190020 21 0.0 0.0 0.00 0.00 0.00 39 1014.7
20260505185041 21 0.0 0.0 0.00 0.00 0.00 39 1014.6
20260505184020 22 0.0 0.0 0.00 0.00 0.00 39 1014.5
20260505183018 22 0.0 0.0 0.00 0.00 0.00 37 1014.4
20260505182020 22 0.0 0.0 0.00 0.00 0.00 37 1014.3
20260505181018 23 0.0 0.0 0.00 0.00 0.00 36 1014.0
20260505180018 23 0.0 0.0 0.00 0.00 0.00 37 1014.0
20260505175018 23 0.0 0.0 0.00 0.00 0.00 36 1014.1
20260505174018 23 0.0 0.0 0.00 0.00 0.00 37 1014.1
20260505173040 24 0.0 0.0 0.00 0.00 0.00 37 1014.1
20260505172019 24 0.0 4.8 0.00 0.00 0.00 36 1014.1
20260505171018 24 0.0 0.0 0.00 0.00 0.00 36 1013.9
20260505170018 25 0.0 4.8 0.00 0.00 0.00 35 1014.0
20260505165018 25 0.0 3.2 0.00 0.00 0.00 36 1014.2
20260505164018 25 0.0 3.2 0.00 0.00 0.00 35 1014.3
20260505163018 26 0.0 1.6 0.00 0.00 0.00 34 1014.1
20260505162020 26 0.0 6.4 0.00 0.00 0.00 33 1014.2
20260505161018 26 0.0 8.0 0.00 0.00 0.00 33 1014.0